Location: Courtomer
(48.6529°N, 2.9044°E)
Time: 07:21:02
(UTC+00:00)

Daily predictions for brighter satellites

Satellite Brightness Start Highest point End
(mag) Time Altitude Azimuth Time Altitude Azimuth Time Altitude Azimuth
NOSS 3-1 (A) 4.3 17:48:31 10° NW 17:55:56 80° SW 18:04:43 10° SSE
CZ-4C R/B 4.2 17:57:46 10° N 18:02:02 59° WNW 18:06:08 10° SSW
CZ-4 R/B 4.4 17:58:41 10° SSE 18:02:48 86° E 18:06:56 10° NNW
CZ-4B DEB 4.4 17:58:19 10° SSE 18:03:47 82° WSW 18:09:18 10° NNW
SL-16 R/B 3.9 18:06:37 10° ESE 18:08:17 11° E 18:09:57 10° ENE
USA 186 3.8 18:07:11 10° E 18:08:54 14° ENE 18:10:39 10° NNE
USA 215 3.5 18:02:43 10° NE 18:09:14 72° NNW 18:15:44 10° WSW
SL-4 R/B 2.5 18:09:18 10° WNW 18:13:40 62° N 18:18:03 11° E
Cosmos 1844 Rocket 4.4 18:10:02 10° N 18:13:45 17° NE 18:17:27 10° ENE
Cosmos 1741 Rocket 4.5 18:09:57 10° S 18:14:49 39° ESE 18:19:42 10° NE
ARGOS Delta rocket 4.1 18:10:12 10° NNE 18:15:29 55° E 18:20:28 10° S
Timation 2 Rocket 4.1 18:11:18 10° NNW 18:17:45 58° NE 18:23:53 10° SE
SKYMED 3 4.5 18:13:37 10° NNE 18:17:46 89° WNW 18:21:53 10° SSW
BREEZE-M DEB (TANK) 4.3 18:16:46 10° SW 18:21:12 55° SE 18:38:22 10° ENE
Okean O Rocket 1.7 18:17:52 10° SSE 18:22:07 57° ENE 18:26:26 10° N
Cosmos 2219 4.2 18:19:03 10° NW 18:24:38 52° WSW 18:30:11 10° S
Nadezhda 4 Rocket 4.4 18:19:10 10° SSE 18:24:58 40° E 18:30:47 10° NNE
Cosmos 1242 Rocket 2.4 18:24:13 10° S 18:27:47 76° E 18:31:21 10° NNE
Spot 1 3.9 18:24:34 10° NNE 18:28:54 86° ESE 18:33:01 10° SSW
BREEZE M DEB (TANK) 4.2 18:24:43 10° SSW 18:29:27 18° SSE 18:31:25 13° ESE
Cosmos 1809 Rocket 4.4 18:24:00 10° S 18:29:56 60° E 18:35:55 10° NNE
SL-14 R/B 3.2 18:26:47 10° N 18:30:43 66° ENE 18:34:40 10° SSE
Cosmos 2263 Rocket 2.2 18:26:29 10° NNW 18:32:10 65° ENE 18:37:50 10° SE
Cosmos 1805 3.1 18:30:43 10° S 18:34:34 75° E 18:38:28 10° NNE
Cosmos 1674 Rocket 3.5 18:30:50 10° N 18:35:12 63° ENE 18:39:35 10° SSE
YAOGAN 1 2.6 18:31:38 10° SSE 18:35:58 89° W 18:40:19 10° NNW
Meteor 2-5 Rocket 4.4 18:32:05 10° N 18:37:05 33° ENE 18:41:16 14° SE
Cosmos 1726 2.2 18:34:44 10° S 18:38:16 49° E 18:41:49 10° NNE
COBE Rocket 4.0 18:33:22 10° S 18:38:16 80° WSW 18:43:05 10° NNW
OBJECT-B 1.2 18:38:57 25° E 18:39:20 27° ENE 18:41:35 10° N
H-2A R/B 4.1 18:39:28 15° ENE 18:39:52 15° ENE 18:42:05 10° NNE
Cosmos 2082 4.1 18:37:54 10° NNW 18:43:36 66° WSW 18:49:15 10° SSE
IRIDIUM 106 4.3 18:40:27 10° SSE 18:45:34 61° E 18:50:43 10° N
USA 267 4.5 18:39:56 10° SSE 18:45:59 39° SW 18:52:04 10° WNW
Cosmos 1766 3.3 18:44:44 10° S 18:48:31 52° E 18:52:22 10° NNE
Cosmos 1025 Rocket 4.2 18:47:15 10° NNE 18:50:41 23° ENE 18:51:18 22° E
Cosmos 1697 Rocket 3.5 18:47:06 10° SW 18:52:35 53° WNW 18:58:07 10° NNE
CSL-04 Debris 4.3 18:50:24 10° SE 18:55:40 56° ENE 19:00:57 10° N
Cosmos 2221 Rocket 4.2 18:53:12 10° NNW 18:57:39 59° W 19:02:06 10° S
Cosmos 1975 Rocket 3.9 18:56:11 10° N 19:00:05 29° ENE 19:00:50 28° E
Cosmos 1092 Rocket 4.3 18:56:05 10° SSE 19:01:58 43° E 19:07:50 10° NNE
Landsat 7 4.4 19:00:02 26° ESE 19:01:59 37° ENE 19:06:20 10° N
IGS 5A 3.6 18:59:49 24° SE 19:02:00 49° ENE 19:06:00 10° N
Cosmos 1378 Rocket 3.9 19:00:01 10° NNW 19:04:23 68° W 19:08:42 10° S
Resurs 01 Rocket 2.9 19:05:25 23° ENE 19:05:33 23° ENE 19:09:01 10° NNE
Cosmos 968 Rocket 3.8 19:04:47 10° S 19:09:42 42° ESE 19:14:37 10° NE
Cosmos 1470 3.2 19:15:56 39° ENE 19:15:56 39° ENE 19:19:03 10° NNE
Cosmos 1733 Rocket 4.5 19:11:51 10° SW 19:16:02 40° WNW 19:20:16 10° N
ISS -3.0 19:19:05 10° WNW 19:22:18 43° SSW 19:22:45 40° S
Cosmos 2084 4.3 19:18:51 10° WSW 19:22:29 42° NW 19:25:47 12° NNE
Cosmos 2322 Rocket 3.9 19:19:06 10° SSE 19:27:51 16° NE 19:29:08 10° NE
Ariane Rocket 4.2 19:25:15 25° ENE 19:25:15 25° ENE 19:29:17 10° N
CSL-04 Rocket 3.5 19:21:40 18° SSE 19:25:44 86° ENE 19:31:10 10° NNW
Okean-O 2.5 19:24:10 31° SSE 19:26:17 81° ENE 19:30:44 10° NNW
Resurs 1-3 3.5 19:26:17 44° SE 19:27:33 67° ENE 19:31:55 10° N
CZ-4 R/B 3.0 19:23:53 10° SSW 19:27:44 36° W 19:31:37 10° NNW
Gbstr 26 Del rocket 4.4 19:21:38 10° SW 19:29:19 75° SSE 19:34:41 24° ENE
SJ-6B 2.8 19:30:23 37° S 19:31:43 73° WSW 19:35:30 10° NNW
Cosmos 1570 Rocket 3.9 19:27:09 10° NNW 19:32:28 89° ENE 19:34:49 34° SSE
Cosmos 1980 Rocket 3.0 19:27:22 10° SW 19:32:51 51° NW 19:38:20 10° NNE
Meteor 1-12 Rocket 4.5 19:28:52 10° SSW 19:34:51 77° WNW 19:40:56 10° N
Cosmos 1627 Rocket 4.3 19:31:57 10° S 19:38:00 69° E 19:44:06 10° NNE
JB-3 4.2 19:34:17 10° NNE 19:38:22 76° ESE 19:38:37 72° SE
USA 186 2.8 19:40:04 38° SW 19:40:49 46° W 19:44:04 10° NNW
deb Chang Zheng 4 3.4 19:41:18 64° NE 19:41:18 64° NE 19:45:13 10° N
Cosmos 1428 Rocket 4.4 19:39:15 10° S 19:45:24 85° E 19:51:41 10° N
Cosmos 2195 Rocket 4.4 19:39:20 10° S 19:45:34 89° E 19:51:54 10° N
Cosmos 2278 4.0 19:42:27 10° SW 19:48:06 67° WNW 19:53:47 10° NNE
Meteor 1-24 Rocket 3.6 19:43:44 10° NNW 19:49:04 80° W 19:51:25 34° S
Cosmos 1437 Rocket 3.2 19:45:49 10° SSW 19:49:31 57° WNW 19:53:14 10° N
SL-16 R/B 2.0 19:45:41 10° SSW 19:51:19 70° ESE 19:56:58 10° NNE
USA 215 4.1 19:47:18 18° NE 19:51:47 45° N 19:57:55 10° WNW
SL-4 R/B 2.4 19:48:47 10° WNW 19:53:18 64° SSW 19:53:27 64° SSW
Cosmos 2208 Rocket 4.1 19:50:27 10° NNW 19:55:50 76° WSW 19:57:21 48° S
Cosmos 1844 Rocket 2.6 19:53:04 10° NNW 19:58:46 68° ENE 19:59:16 64° E
Okean O Rocket 4.4 19:55:57 10° SW 19:58:50 17° W 20:01:45 10° NW
Meteor 1-22 Rocket 4.3 19:55:28 10° SSW 20:00:50 74° WNW 20:06:27 10° N
USA 81 4.2 19:56:34 10° N 20:01:50 73° W 20:03:45 40° SSW
Cosmos 2278 Rocket 4.0 19:59:08 10° N 20:02:48 17° NE 20:03:03 17° NE
Cosmos 2026 Rocket 3.9 19:57:00 10° S 20:03:03 81° W 20:09:10 10° N
Cosmos 1782 Rocket 4.0 20:06:54 46° SW 20:07:53 58° WNW 20:12:13 10° N
Cosmos 1553 Rocket 3.9 20:02:13 10° N 20:08:36 78° E 20:09:43 62° SSE
MOS 1 4.1 20:08:42 72° SE 20:09:17 83° ENE 20:14:59 10° NNW
OBJECT-B 3.8 20:09:48 11° W 20:09:48 11° W 20:10:23 10° WNW
H-2A R/B 3.4 20:15:56 43° NW 20:15:56 43° NW 20:18:44 10° NNW
Cosmos 2263 Rocket 4.2 20:11:13 10° NW 20:15:36 23° WSW 20:19:59 10° SSW
USA 281 3.8 20:16:22 40° NE 20:16:36 40° NE 20:22:38 10° NNW
Cosmos 1844 3.6 20:14:47 10° NNW 20:20:06 79° NNE 20:20:06 79° NNE
Cosmos 1025 Rocket 4.2 20:24:25 10° NNW 20:28:11 39° W 20:28:11 39° W
MetOp-B 4.5 20:31:46 59° N 20:31:46 59° N 20:36:09 10° NNW
SPOT 1/Viking Rocket 3.8 20:32:06 64° W 20:32:06 64° W 20:36:56 10° NNW
Cosmos 2360 Rocket 4.5 20:46:44 12° NNE 20:46:44 12° NNE 20:47:13 10° NNE
Resurs 01 Rocket 3.0 20:42:59 36° NW 20:42:59 36° NW 20:46:03 10° NNW
Ariane Rocket 4.3 21:05:27 38° NW 21:05:27 38° NW 21:08:50 10° NNW
Terra 3.9 21:07:10 21° N 21:07:10 21° N 21:08:45 10° N
Cosmos 2322 Rocket 3.3 21:09:30 39° NNW 21:09:30 39° NNW 21:13:31 10° NNE
ATLAS 2AS CENTAUR R/B 4.0 21:01:49 10° NW 21:08:09 30° NNE 21:09:00 30° NNE
NOSS 3-4 (A) 4.1 21:12:53 10° NW 21:18:30 60° N 21:18:30 60° N
NOSS 3-4 (C) 4.1 21:13:00 10° NW 21:18:36 60° N 21:18:36 60° N
USA 215 4.0 21:34:39 47° N 21:34:39 47° N 21:40:20 10° WNW
SL-16 R/B 4.1 21:31:15 10° W 21:35:57 26° NW 21:40:42 10° NNE
Cosmos 2278 Rocket 4.0 21:42:21 10° NNW 21:44:53 27° NNW 21:44:53 27° NNW
Cosmos 1943 Rocket 4.4 21:53:06 10° NNW 21:54:57 19° N 21:54:57 19° N
USA 281 4.4 22:03:15 37° WNW 22:03:15 37° WNW 22:07:22 10° NNW
ATLAS 2AS CENTAUR R/B 4.3 22:53:07 10° NW 22:56:24 29° NW 22:56:24 29° NW
